Location: Curries
(43.0713°N, 80.7206°W)
Time: 15:34:27
(UTC+00:00)

N. Korean satellite - Visible Passes

Search period start: 22 January 2022 00:00
Search period end: 01 February 2022 00:00
Orbit: 447 x 491 km, 97.3° (Epoch: 21 January)

Date Brightness Start Highest point End Pass type
(mag) Time Alt. Az. Time Alt. Az. Time Alt. Az.
22 Jan 7.6 10:54:08 10° N 11:03:19 - SSW 10:56:19 33° N visible
23 Jan 8.0 10:25:01 10° NNE 10:33:53 - S 10:27:13 33° NE visible
23 Jan 8.5 12:00:10 10° NW 12:01:15 11° WNW 12:01:17 11° WNW visible
24 Jan 9.1 09:56:20 10° NE 10:04:26 - SSE 09:58:08 20° ENE visible
24 Jan 7.7 11:29:27 10° NNW 11:32:12 23° WNW 11:32:12 23° WNW visible
25 Jan 6.7 10:59:47 10° N 11:03:07 50° WNW 11:03:07 50° WNW visible
26 Jan 6.9 10:30:33 10° NNE 10:39:29 - S 10:34:02 64° E visible
27 Jan 8.6 10:01:43 10° NE 10:04:53 27° E 10:04:58 27° E visible
27 Jan 7.9 11:35:09 10° NNW 11:37:51 20° WNW 11:39:02 17° W visible
28 Jan 9.8 09:33:50 10° ENE 09:35:27 12° E 09:35:55 12° E visible
28 Jan 6.9 11:05:20 10° N 11:08:48 43° WNW 11:09:58 31° WSW visible
29 Jan 6.6 10:35:58 10° NNE 10:39:38 78° ESE 10:40:58 37° S visible
30 Jan 8.4 10:07:01 10° NNE 10:10:18 31° E 10:11:58 21° SE visible
30 Jan 8.1 11:40:45 10° NNW 11:43:11 17° WNW 11:45:38 10° WSW visible
31 Jan 9.7 09:38:48 10° ENE 09:40:51 14° E 09:42:53 10° SE visible
31 Jan 7.1 11:10:46 10° N 11:14:08 36° WNW 11:17:11 12° SW visible
